Location: Marsån
(66.4167°N, 22.2833°E)
Time: 07:27:54
(UTC+00:00)

Okean-O - Pass Details

Date: 24 February 2024
Orbit: 633 x 636 km, 98.0° (Epoch: 20 April)

Event Time Altitude Azimuth Distance (km) Brightness Sun altitude
Exits shadow 18:48:36 19° 185° (S) 1,520 4.3 -20.7°
Maximum altitude 18:51:37 54° 257° (WSW) 784 3.3 -21.0°
Drops below altitude 10° 18:55:59 10° 335° (NNW) 2,046 5.9 -21.4°
Sets 18:58:15 0° 340° (NNW) 2,959 6.8 -21.6°
